Location: Bottenau
(48.5138°N, 8.0462°E)
Time: 04:43:00
(UTC+00:00)

ERS-2 - Pass Details

Date: 18 April 2021
Orbit: 491 x 497 km, 98.6° (Epoch: 09 May)

Event Time Altitude Azimuth Distance (km) Brightness Sun altitude
Rises 19:09:12 0° 11° (N) 2,592 6.0 -7.8°
Reaches altitude 10° 19:11:18 10° 8° (N) 1,703 5.1 -8.1°
Maximum altitude 19:14:55 61° 288° (WNW) 565 2.7 -8.6°
Drops below altitude 10° 19:18:29 10° 208° (SSW) 1,685 4.8 -9.2°
Sets 19:20:33 0° 205° (SSW) 2,561 5.7 -9.5°
